Location: Newark
(7.1028°S, 35.3258°W)
Time: 22:01:35
(UTC+00:00)

Vanguard 3 - All Passes

Search period start: 18 February 2020 00:00
Search period end: 28 February 2020 00:00
Orbit: 508 x 3263 km, 33.3° (Epoch: 17 February)

Date Brightness Start Highest point End Pass type
(mag) Time Alt. Az. Time Alt. Az. Time Alt. Az.
18 Feb - 01:04:52 10° W 01:17:36 26° SSW 01:26:25 10° SSE visible
18 Feb - 07:58:50 10° SW 08:02:49 53° SSE 08:06:25 10° ENE visible
18 Feb - 10:13:29 10° NW 10:14:25 11° NNW 10:15:23 10° NNW daylight
18 Feb - 17:02:20 10° N 17:08:26 13° NNE 17:15:10 10° NE daylight
18 Feb - 19:10:10 10° NNW 19:26:43 41° NE 19:44:05 10° E daylight
18 Feb - 21:24:02 10° NW 21:44:15 90° SW 22:00:45 10° SE visible
18 Feb - 23:43:50 10° W 00:01:08 41° SSW 00:13:06 10° SE visible
19 Feb - 02:10:42 10° SW 02:17:56 16° SSW 02:23:30 10° SSE visible
19 Feb - 06:45:08 10° SSW 06:48:58 22° SSE 06:52:01 10° ESE visible
19 Feb - 08:57:16 10° W 09:00:31 28° NW 09:03:53 10° NNE daylight
19 Feb - 17:56:30 10° NNW 18:09:22 26° NE 18:24:18 10° E daylight
19 Feb - 20:07:58 10° NW 20:26:51 67° NE 20:45:01 10° ESE daylight
19 Feb - 22:24:33 10° WNW 22:44:14 60° SW 22:59:05 10° SE visible
20 Feb - 00:48:21 10° WSW 01:01:20 25° SSW 01:10:33 10° SSE visible
20 Feb - 03:15:49 10° SSW 03:18:37 11° S 03:21:06 10° S visible
20 Feb - 05:31:14 10° SSW 05:34:22 14° SSE 05:36:56 10° SE visible
20 Feb - 07:42:42 10° SW 07:47:06 84° SSE 07:50:45 10° ENE visible
20 Feb - 16:45:01 10° N 16:52:07 14° NE 17:00:19 10° ENE daylight
20 Feb - 18:53:10 10° NNW 19:09:30 46° NE 19:27:43 10° ESE daylight
20 Feb - 21:07:02 10° WNW 21:26:54 82° SW 21:44:16 10° SE visible
20 Feb - 23:27:08 10° W 23:44:24 38° SSW 23:56:55 10° SE visible
21 Feb - 01:54:03 10° SW 02:02:06 17° SSW 02:08:14 10° SSE visible
21 Feb - 04:16:02 10° SSW 04:19:04 12° S 04:21:39 10° SSE night (unlit)
21 Feb - 06:28:24 10° SW 06:33:21 32° SSE 06:36:56 10° E visible
21 Feb - 08:41:57 10° W 08:44:45 19° NW 08:47:26 10° N daylight
21 Feb - 17:39:36 10° NNW 17:52:28 29° NE 18:08:11 10° E daylight
21 Feb - 19:51:02 10° NW 20:09:26 74° NE 20:28:25 10° ESE daylight
21 Feb - 22:07:45 10° WNW 22:27:06 55° SSW 22:42:40 10° SE visible
22 Feb - 00:31:52 10° WSW 00:45:06 25° SSW 00:54:43 10° SSE visible
22 Feb - 02:57:59 10° SSW 03:03:03 14° S 03:07:07 10° SSE visible
22 Feb - 05:13:45 10° SSW 05:18:50 20° SSE 05:22:31 10° ESE visible
22 Feb - 07:26:36 10° WSW 07:31:22 64° NW 07:35:00 10° NE visible
22 Feb - 16:27:56 10° N 16:35:42 16° NE 16:45:02 10° ENE daylight
22 Feb - 18:36:19 10° NNW 18:52:13 52° NE 19:11:08 10° ESE daylight
22 Feb - 20:50:13 10° WNW 21:09:32 75° SW 21:27:40 10° SE visible
22 Feb - 23:10:34 10° W 23:27:42 36° SSW 23:40:44 10° SE visible
23 Feb - 01:37:17 10° SW 01:46:17 18° SSW 01:53:04 10° SSE visible
23 Feb - 03:58:04 10° SSW 04:03:33 16° S 04:07:38 10° SE night (unlit)
23 Feb - 06:11:41 10° SW 06:17:42 47° SSE 06:21:41 10° ENE visible
23 Feb - 08:27:00 10° WNW 08:28:53 13° NW 08:30:40 10° N daylight
23 Feb - 17:22:50 10° NNW 17:35:30 33° NE 17:51:50 10° E daylight
23 Feb - 19:34:16 10° NW 19:52:00 81° NE 20:11:39 10° ESE daylight
23 Feb - 21:51:07 10° WNW 22:10:01 50° SSW 22:26:11 10° SE visible
24 Feb - 00:15:23 10° WSW 00:28:54 24° SSW 00:38:57 10° SSE visible
24 Feb - 02:40:23 10° SW 02:47:26 16° S 02:52:44 10° SE visible
24 Feb - 04:56:29 10° SW 05:03:14 27° SSE 05:07:41 10° ESE visible
24 Feb - 07:10:32 10° WSW 07:15:32 43° NW 07:19:11 10° NE visible
24 Feb - 16:11:02 10° N 16:19:11 18° NE 16:29:24 10° ENE daylight
24 Feb - 18:19:38 10° NW 18:34:54 58° NE 18:54:21 10° ESE daylight
24 Feb - 20:33:35 10° WNW 20:52:13 69° SW 21:10:55 10° SE visible
24 Feb - 22:54:08 10° W 23:11:04 34° SSW 23:24:31 10° SE visible
25 Feb - 01:20:21 10° SW 01:30:28 19° S 01:37:59 10° SE visible
25 Feb - 03:40:26 10° SSW 03:47:57 21° SSE 03:53:07 10° ESE night (unlit)
25 Feb - 05:54:59 10° SW 06:01:58 68° SSE 06:06:16 10° ENE visible
25 Feb - 17:06:12 10° NNW 17:18:28 37° NE 17:35:15 10° E daylight
25 Feb - 19:17:41 10° NW 19:34:38 89° NE 19:54:45 10° SE daylight
25 Feb - 21:34:40 10° W 21:53:00 46° SSW 22:09:36 10° SE visible
25 Feb - 23:58:53 10° WSW 00:12:44 24° SSW 00:23:15 10° SE visible
26 Feb - 02:22:50 10° SW 02:31:47 20° S 02:38:08 10° SE visible
26 Feb - 04:39:16 10° SW 04:47:35 37° SSE 04:52:38 10° E night (unlit)
26 Feb - 06:54:28 10° WSW 06:59:36 32° NW 07:03:16 10° NNE visible
26 Feb - 15:54:18 10° N 16:02:35 20° NE 16:13:28 10° E daylight
26 Feb - 18:03:07 10° NW 18:17:37 64° NE 18:37:23 10° ESE daylight
26 Feb - 20:17:08 10° WNW 20:34:58 62° SSW 20:54:03 10° SE daylight
26 Feb - 22:37:50 10° WSW 22:54:30 32° SSW 23:08:19 10° SE visible
27 Feb - 01:03:17 10° SW 01:14:38 21° S 01:22:56 10° SE visible
27 Feb - 03:22:52 10° SW 03:32:18 27° SSE 03:38:18 10° ESE visible
27 Feb - 05:38:15 10° SW 05:46:07 88° NW 05:50:45 10° NE visible
27 Feb - 16:49:43 10° NNW 17:01:26 41° NE 17:18:27 10° ESE daylight
27 Feb - 19:01:17 10° WNW 19:17:19 84° SW 19:37:40 10° SE daylight
27 Feb - 21:18:24 10° W 21:36:04 42° SSW 21:52:59 10° SE visible
